Weather History for KCHS - August, 2012

Change the Weather History Date:

Thursday, August 30, 2012

  Actual Average Record
Temperature  
Mean Temperature 78 °F 80 °F  
Max Temperature 83 °F 88 °F 96 °F (1948)
Min Temperature 72 °F 71 °F 59 °F (1986)
Degree Days  
Heating Degree Days 0 0  
Month to date heating degree days 0 0  
Since 1 June heating degree days 0 1  
Since 1 July heating degree days 0 0  
Cooling Degree Days 13 14  
Month to date cooling degree days 465 479  
Year to date cooling degree days 1956 1791  
Since 1 June cooling degree days 1391 1429  
Growing Degree Days 27 (Base 50)    
Moisture  
Dew Point 72 °F    
Average Humidity 85    
Maximum Humidity 100    
Minimum Humidity 69    
Precipitation  
Precipitation 0.14 in 0.24 in 3.75 in (1985)
Month to date precipitation 7.76 6.91  
Year to date precipitation 35.13 35.40  
Sea Level Pressure  
Sea Level Pressure 30.09 in    
Wind  
Wind Speed 2 mph (ESE)    
Max Wind Speed 9 mph    
Max Gust Speed 12 mph    
Visibility 10 miles    
Events Rain    
T = Trace of Precipitation, MM = Missing Value Source: NWS Daily Summary

Daily Weather History Graph

Daily Weather History Graph

Search for Another Location

Airport or City:

Trip Planner

Search our weather history database for the weather conditions in past years. The results will help you decide how hot, cold, wet, or windy it might be!

Date:

Astronomy

Aug. 30, 2012 Rise Set
Actual Time 6:53 AM EDT 7:46 PM EDT
Civil Twilight 6:28 AM EDT 8:12 PM EDT
Nautical Twilight 5:58 AM EDT 8:41 PM EDT
Astronomical Twilight 5:27 AM EDT 9:12 PM EDT
Moon 7:02 PM EDT (8/30) 5:53 AM EDT (8/30)
Length of Visible Light 13h 43m
Length of Day
12h 53m
Waxing Gibbous, 99% of the Moon is Illuminated
Aug 30
Waxing Gibbous
Aug 31
Full
Sep 8
Last Quarter
Sep 15
New
Sep 22
First Quarter

Hourly Weather History & Observations

Time (EDT) Temp. Heat Index Dew Point Humidity Pressure Visibility Wind Dir Wind Speed Gust Speed Precip Events Conditions
12:56 AM 72.0 °F - 70.0 °F 93% 30.04 in 6.0 mi South 8.1 mph - 0.21 in Rain Rain
1:56 AM 72.0 °F - 70.0 °F 93% 29.99 in 9.0 mi South 6.9 mph - 0.14 in Rain Light Rain
2:56 AM 72.0 °F - 70.0 °F 93% 29.99 in 10.0 mi North 4.6 mph - 0.01 in   Overcast
3:56 AM 72.0 °F - 71.1 °F 97% 29.98 in 10.0 mi SSW 3.5 mph - N/A   Overcast
4:56 AM 72.0 °F - 70.0 °F 93% 29.98 in 10.0 mi North 3.5 mph - N/A   Overcast
5:56 AM 72.0 °F - 71.1 °F 97% 30.01 in 10.0 mi Calm Calm - N/A   Overcast
6:56 AM 73.0 °F - 71.1 °F 93% 30.03 in 10.0 mi North 4.6 mph - N/A   Mostly Cloudy
7:56 AM 73.0 °F - 71.1 °F 93% 30.06 in 10.0 mi East 3.5 mph - N/A   Overcast
8:56 AM 75.0 °F - 72.0 °F 90% 30.09 in 10.0 mi ESE 5.8 mph - N/A   Overcast
9:56 AM 75.9 °F - 72.0 °F 87% 30.11 in 10.0 mi East 3.5 mph - N/A   Overcast
10:20 AM 77.0 °F - 73.4 °F 89% 30.12 in 10.0 mi Variable 3.5 mph - N/A   Overcast
10:56 AM 77.0 °F - 73.0 °F 88% 30.13 in 10.0 mi Calm Calm - N/A   Overcast
11:56 AM 79.0 °F - 72.0 °F 79% 30.14 in 10.0 mi Calm Calm - N/A   Overcast
12:56 PM 81.0 °F 85.8 °F 73.0 °F 77% 30.14 in 10.0 mi Calm Calm - N/A   Overcast
1:56 PM 81.0 °F 85.2 °F 72.0 °F 74% 30.14 in 10.0 mi Calm Calm - N/A   Overcast
2:56 PM 82.0 °F 87.4 °F 73.0 °F 74% 30.13 in 10.0 mi Calm Calm - N/A   Overcast
3:56 PM 82.0 °F 86.7 °F 72.0 °F 71% 30.12 in 10.0 mi Variable 3.5 mph - N/A   Overcast
4:56 PM 82.9 °F 88.8 °F 73.0 °F 72% 30.12 in 10.0 mi NNW 3.5 mph - N/A   Overcast
5:56 PM 82.9 °F 88.8 °F 73.0 °F 72% 30.12 in 10.0 mi Calm Calm - N/A   Overcast
6:56 PM 81.0 °F 85.8 °F 73.0 °F 77% 30.12 in 10.0 mi Calm Calm - N/A   Overcast
7:56 PM 79.0 °F - 73.9 °F 84% 30.12 in 10.0 mi Calm Calm - N/A   Overcast
8:56 PM 79.0 °F - 73.0 °F 82% 30.14 in 10.0 mi ESE 3.5 mph - N/A   Overcast
9:56 PM 77.0 °F - 72.0 °F 84% 30.15 in 10.0 mi SSE 4.6 mph - N/A   Overcast
10:56 PM 77.0 °F - 72.0 °F 84% 30.15 in 10.0 mi Calm Calm - N/A   Overcast
11:56 PM 75.9 °F - 72.0 °F 87% 30.17 in 10.0 mi Calm Calm - N/A   Mostly Cloudy